| time (UTC) | temp F | wind direction | speed MPH | gust MPH | rain 1hr in | rain 24hr in | rain mn in | humidity % | barometer mb |
| 20260903194553 | 84 | 172 | 0.0 | 1.0 | 0.00 | 0.18 | 0.18 | 73 | 1009.8 |
| 20260903193050 | 83 | 188 | 0.0 | 1.0 | 0.00 | 0.18 | 0.18 | 74 | 1009.9 |
| 20260903191556 | 82 | 15 | 0.0 | 5.0 | 0.00 | 0.18 | 0.18 | 76 | 1010.1 |
| 20260903190045 | 82 | 176 | 0.0 | 2.0 | 0.00 | 0.18 | 0.18 | 76 | 1010.1 |
| 20260903184542 | 81 | 200 | 0.0 | 2.0 | 0.00 | 0.18 | 0.18 | 77 | 1010.4 |
| 20260903183101 | 80 | 173 | 0.0 | 2.0 | 0.00 | 0.18 | 0.18 | 77 | 1010.5 |
| 20260903181538 | 81 | 12 | 0.0 | 3.0 | 0.00 | 0.18 | 0.18 | 77 | 1010.5 |
| 20260903180039 | 81 | 355 | 0.0 | 4.0 | 0.00 | 0.18 | 0.18 | 79 | 1010.6 |
| 20260903174537 | 80 | 22 | 0.0 | 2.0 | 0.00 | 0.18 | 0.18 | 79 | 1010.6 |
| 20260903173037 | 80 | 355 | 0.0 | 3.0 | 0.00 | 0.18 | 0.18 | 80 | 1010.6 |
| 20260903171534 | 81 | 79 | 0.0 | 3.0 | 0.00 | 0.18 | 0.18 | 78 | 1010.7 |
| 20260903170033 | 80 | 335 | 0.0 | 4.0 | 0.00 | 0.18 | 0.18 | 80 | 1011.0 |
| 20260903164529 | 81 | 207 | 0.0 | 2.0 | 0.00 | 0.18 | 0.18 | 82 | 1010.8 |
| 20260903163026 | 79 | 204 | 0.0 | 3.0 | 0.00 | 0.18 | 0.18 | 86 | 1010.8 |
| 20260903161532 | 78 | 196 | 0.0 | 0.0 | 0.00 | 0.18 | 0.18 | 88 | 1010.8 |
| 20260903160119 | 77 | 202 | 0.0 | 0.0 | 0.00 | 0.18 | 0.18 | 89 | 1011.0 |
| 20260903154514 | 76 | 194 | 0.0 | 0.0 | 0.00 | 0.18 | 0.18 | 90 | 1011.1 |
| 20260903153011 | 75 | 192 | 0.0 | 0.0 | 0.00 | 0.18 | 0.18 | 92 | 1011.4 |
| 20260903151508 | 74 | 192 | 0.0 | 0.0 | 0.00 | 0.18 | 0.18 | 92 | 1011.6 |
| 20260903150003 | 73 | 194 | 0.0 | 2.0 | 0.00 | 0.18 | 0.18 | 94 | 1011.7 |
| 20260903144601 | 73 | 188 | 0.0 | 0.0 | 0.00 | 0.18 | 0.18 | 95 | 1012.0 |
| 20260903143058 | 72 | 188 | 0.0 | 0.0 | 0.00 | 0.18 | 0.18 | 96 | 1012.3 |
| 20260903141555 | 72 | 207 | 0.0 | 0.0 | 0.01 | 0.18 | 0.18 | 97 | 1012.3 |
| 20260903140054 | 71 | 197 | 0.0 | 1.0 | 0.01 | 0.18 | 0.18 | 97 | 1012.6 |
| 20260903134605 | 71 | 188 | 0.0 | 1.0 | 0.01 | 0.18 | 0.18 | 97 | 1012.6 |
| 20260903133052 | 71 | 177 | 0.0 | 1.0 | 0.01 | 0.18 | 0.18 | 97 | 1012.6 |
| 20260903131549 | 71 | 192 | 0.0 | 0.0 | 0.00 | 0.17 | 0.17 | 97 | 1012.9 |
| 20260903130050 | 71 | 192 | 0.0 | 0.0 | 0.00 | 0.17 | 0.17 | 97 | 1012.7 |
| 20260903124558 | 71 | 192 | 0.0 | 0.0 | 0.00 | 0.17 | 0.17 | 97 | 1012.7 |
| 20260903123047 | 71 | 192 | 0.0 | 0.0 | 0.00 | 0.17 | 0.17 | 97 | 1012.7 |
| 20260903121552 | 71 | 174 | 0.0 | 0.0 | 0.00 | 0.17 | 0.17 | 97 | 1013.0 |
| 20260903120045 | 71 | 171 | 0.0 | 2.0 | 0.00 | 0.17 | 0.17 | 97 | 1013.1 |
| 20260903114544 | 70 | 210 | 0.0 | 2.0 | 0.00 | 0.17 | 0.17 | 97 | 1013.3 |
| 20260903113042 | 70 | 199 | 0.0 | 0.0 | 0.01 | 0.17 | 0.17 | 97 | 1013.2 |
| 20260903111541 | 70 | 202 | 0.0 | 0.0 | 0.01 | 0.17 | 0.17 | 98 | 1013.3 |
| 20260903110040 | 70 | 197 | 0.0 | 0.0 | 0.01 | 0.17 | 0.17 | 98 | 1013.2 |
| 20260903104538 | 69 | 218 | 0.0 | 0.0 | 0.01 | 0.17 | 0.17 | 98 | 1013.2 |
| 20260903103036 | 68 | 161 | 0.0 | 0.0 | 0.00 | 0.16 | 0.16 | 97 | 1012.8 |
| 20260903101536 | 68 | 204 | 0.0 | 0.0 | 0.00 | 0.16 | 0.16 | 97 | 1012.7 |
| 20260903100033 | 67 | 204 | 0.0 | 0.0 | 0.01 | 0.16 | 0.16 | 97 | 1012.8 |
| 20260903094528 | 67 | 206 | 0.0 | 0.0 | 0.13 | 0.16 | 0.16 | 97 | 1013.3 |
| 20260903093026 | 66 | 206 | 0.0 | 0.0 | 0.14 | 0.16 | 0.16 | 96 | 1013.4 |
| 20260903091532 | 66 | 206 | 0.0 | 0.0 | 0.15 | 0.16 | 0.16 | 96 | 1013.5 |
| 20260903090026 | 66 | 206 | 0.0 | 0.0 | 0.15 | 0.15 | 0.15 | 95 | 1013.4 |
| 20260903084522 | 66 | 206 | 0.0 | 0.0 | 0.03 | 0.03 | 0.03 | 94 | 1013.5 |
| 20260903083018 | 66 | 206 | 0.0 | 0.0 | 0.02 | 0.02 | 0.02 | 93 | 1013.9 |
| 20260903081517 | 66 | 206 | 0.0 | 0.0 | 0.01 | 0.01 | 0.01 | 92 | 1014.2 |
| 20260903080015 | 66 | 206 | 0.0 | 0.0 | 0.00 | 0.00 | 0.00 | 92 | 1014.0 |
| 20260903074513 | 66 | 206 | 0.0 | 0.0 | 0.00 | 0.00 | 0.00 | 91 | 1014.4 |
| 20260903073011 | 66 | 206 | 0.0 | 0.0 | 0.00 | 0.00 | 0.00 | 90 | 1014.4 |
| 20260903071507 | 66 | 206 | 0.0 | 0.0 | 0.00 | 0.00 | 0.00 | 89 | 1014.7 |
| 20260903070007 | 66 | 205 | 0.0 | 0.0 | 0.00 | 0.00 | 0.00 | 88 | 1015.0 |
| 20260903064504 | 66 | 205 | 0.0 | 0.0 | 0.00 | 0.00 | 0.00 | 86 | 1015.2 |
| 20260903063125 | 67 | 205 | 0.0 | 0.0 | 0.00 | 0.00 | 0.00 | 83 | 1015.5 |
| 20260903061559 | 67 | 205 | 0.0 | 0.0 | 0.00 | 0.00 | 0.00 | 82 | 1015.7 |
| 20260903060056 | 67 | 205 | 0.0 | 0.0 | 0.00 | 0.00 | 0.00 | 82 | 1016.0 |
| 20260903054555 | 67 | 205 | 0.0 | 0.0 | 0.00 | 0.00 | 0.00 | 82 | 1016.2 |
| 20260903053055 | 67 | 205 | 0.0 | 0.0 | 0.00 | 0.00 | 0.00 | 81 | 1016.5 |
| 20260903051550 | 67 | 205 | 0.0 | 0.0 | 0.00 | 0.00 | 0.00 | 80 | 1016.6 |
| 20260903050048 | 67 | 205 | 0.0 | 0.0 | 0.00 | 0.00 | 0.00 | 80 | 1016.7 |
| 20260903044547 | 67 | 209 | 0.0 | 0.0 | 0.00 | 0.00 | 0.00 | 81 | 1016.8 |
| 20260903043059 | 67 | 209 | 0.0 | 0.0 | 0.00 | 0.00 | 0.00 | 80 | 1017.0 |
| 20260903041541 | 67 | 183 | 0.0 | 0.0 | 0.00 | 0.00 | 0.00 | 81 | 1016.7 |
| 20260903040038 | 66 | 183 | 0.0 | 0.0 | 0.00 | 0.00 | 0.00 | 81 | 1016.8 |
| 20260903034539 | 66 | 183 | 0.0 | 0.0 | 0.00 | 0.00 | 0.00 | 80 | 1016.6 |
| 20260903033036 | 66 | 183 | 0.0 | 0.0 | 0.00 | 0.00 | 0.00 | 80 | 1016.8 |
| 20260903031543 | 66 | 181 | 0.0 | 0.0 | 0.00 | 0.00 | 0.00 | 80 | 1017.0 |
| 20260903030031 | 66 | 181 | 0.0 | 0.0 | 0.00 | 0.00 | 0.00 | 80 | 1017.5 |
| 20260903024530 | 66 | 181 | 0.0 | 1.0 | 0.00 | 0.00 | 0.00 | 80 | 1017.7 |
| 20260903023030 | 67 | 200 | 0.0 | 0.0 | 0.00 | 0.00 | 0.00 | 80 | 1017.7 |
| 20260903021529 | 66 | 169 | 0.0 | 0.0 | 0.00 | 0.00 | 0.00 | 79 | 1017.6 |
| 20260903020038 | 66 | 349 | 0.0 | 1.0 | 0.00 | 0.00 | 0.00 | 79 | 1017.4 |
| 20260903014527 | 67 | 349 | 0.0 | 0.0 | 0.00 | 0.00 | 0.00 | 78 | 1017.5 |
| 20260903013027 | 67 | 349 | 0.0 | 0.0 | 0.00 | 0.00 | 0.00 | 76 | 1018.0 |
| 20260903011526 | 67 | 349 | 0.0 | 0.0 | 0.00 | 0.00 | 0.00 | 76 | 1018.1 |
| 20260903010026 | 68 | 349 | 0.0 | 0.0 | 0.00 | 0.00 | 0.00 | 76 | 1018.1 |
| 20260903004526 | 68 | 349 | 0.0 | 0.0 | 0.00 | 0.00 | 0.00 | 75 | 1017.9 |
| 20260903003026 | 68 | 349 | 0.0 | 0.0 | 0.00 | 0.00 | 0.00 | 76 | 1017.8 |
| 20260903001524 | 68 | 341 | 0.0 | 1.0 | 0.00 | 0.00 | 0.00 | 74 | 1018.1 |
| 20260903000027 | 69 | 360 | 0.0 | 0.0 | 0.00 | 0.00 | 0.00 | 73 | 1018.2 |
| 20260902234528 | 69 | 360 | 0.0 | 1.0 | 0.00 | 0.00 | 0.00 | 73 | 1018.6 |
| 20260902233024 | 69 | 212 | 0.0 | 1.0 | 0.00 | 0.00 | 0.00 | 73 | 1018.7 |
| 20260902231525 | 70 | 214 | 0.0 | 0.0 | 0.00 | 0.00 | 0.00 | 71 | 1018.7 |
| 20260902230022 | 70 | 203 | 0.0 | 0.0 | 0.00 | 0.00 | 0.00 | 71 | 1019.0 |
| 20260902224521 | 70 | 215 | 0.0 | 1.0 | 0.00 | 0.01 | 0.00 | 69 | 1018.9 |
| 20260902223037 | 71 | 189 | 0.0 | 0.0 | 0.00 | 0.01 | 0.00 | 69 | 1018.9 |
| 20260902221522 | 71 | 231 | 0.0 | 0.0 | 0.00 | 0.01 | 0.00 | 68 | 1018.6 |
| 20260902220020 | 72 | 319 | 0.0 | 0.0 | 0.00 | 0.01 | 0.00 | 67 | 1018.3 |
| 20260902214519 | 73 | 280 | 0.0 | 2.0 | 0.00 | 0.03 | 0.00 | 68 | 1018.2 |
| 20260902213019 | 73 | 297 | 0.0 | 1.0 | 0.00 | 0.03 | 0.00 | 68 | 1018.0 |
| 20260902211520 | 74 | 117 | 0.0 | 2.0 | 0.00 | 0.03 | 0.00 | 67 | 1018.2 |
| 20260902210017 | 74 | 333 | 0.0 | 1.0 | 0.00 | 0.04 | 0.00 | 66 | 1018.5 |
| 20260902204531 | 75 | 204 | 0.0 | 0.0 | 0.00 | 0.04 | 0.00 | 67 | 1018.6 |
| 20260902203015 | 75 | 200 | 0.0 | 0.0 | 0.00 | 0.04 | 0.00 | 66 | 1018.6 |
| 20260902201514 | 75 | 198 | 0.0 | 1.0 | 0.00 | 0.04 | 0.00 | 64 | 1018.5 |
| 20260902200011 | 76 | 242 | 0.0 | 2.0 | 0.00 | 0.12 | 0.00 | 62 | 1018.5 |